www.pogodaiklimat.ru

Погода и климат >> Архив погоды >> Украина >> Белополе


ПОГОДА в Белополе

  • Прогноз погоды в Белополе
  • Монитор погоды в Белополе

АРХИВ ПОГОДЫ в Белополе

Время (UTC), дата Ветер
(напр.,м/с)
 
Видим.   Явления Облачность Т
(С)
Тd
(С)
f
(%)
Тe
(С)
Тes
(С)
Комфортность P
(гПа)
Po
(гПа)
Тmin
(С)
Tmax
(С)
R
(мм)
R24
(мм)
S
(см)
12 13.09 СЗ 2 4000 м 8/8 1000 м
[Cu hum]
+26.7 +9.5 34 +27 +27 жарко 1023.0 993.4
15 13.09 СЗ 2 4000 м 8/0
[Ci fib]
+25.2 +8.6 35 +26 +26 жарко 1022.0 992.3
18 13.09 СЗ 1 10 км 8/0
[Ci fib]
+18.2 +10.8 62 +20 +20 1024.0 993.5 +28.1
21 13.09 З 1 10 км 6/0
[Ci fib]
+15.0 +9.1 68 +16 +16 1024.0 993.2
00 14.09 З 1 10 км 9/0
[Ac trans]
+14.8 +9.4 70 +15 +15 1023.0 992.2
03 14.09 З 2 10 км 9/0
[Ac trans]
+16.9 +11.2 69 +17 +17 1023.0 992.4
06 14.09 СЗ 2 4000 м 9/8 600 м
[Sc Ac trans]
+15.9 +11.7 76 +16 +16 1024.0 993.3 +13.9
09 14.09 СЗ 3 4000 м {ливн. осадки} 8/0
[Ac trans Ci fib]
+16.5 +7.2 54 +16 +16 1023.0 992.4
12 14.09 З 4 4000 м {ливн. осадки} 6/6 600 м
[Cu hum]
+18.9 +3.5 36 +19 +21 1026.3 996.0
15 14.09 СЗ 3 4000 м 8/0
[Ci fib]
+19.9 +0.8 28 +20 +20 1025.0 994.6
18 14.09 З 2 10 км ясно +14.0 +4.3 52 +14 +14 1027.0 995.9 +20.2 0.0
21 14.09 З 1 10 км ясно +9.8 +3.1 63 +10 +10 1028.0 996.5
00 15.09 З 1 10 км ясно +7.6 +3.6 76 +7 +7 1028.0 996.2
03 15.09 З 1 10 км ясно +6.8 +3.4 79 +6 +6 1029.0 997.3
06 15.09 З 1 4000 м 4/0
[Ci fib]
+8.7 +5.1 78 +8 +10 1028.0 996.3 +6.0
09 15.09 З 2 4000 м 8/4 600 м
[Cu hum Ci fib]
+19.0 +3.6 36 +20 +20 1025.0 994.5
12 15.09 З 3 4000 м 5/0
[Ci fib]
+20.9 +3.1 31 +22 +24 комфорт 1023.0 992.8
15 15.09 З 3 4000 м 9/0
[Ci fib]
+20.1 +2.0 30 +21 +21 комфорт 1020.0 989.8
18 15.09 З 1 10 км 8/0
[Ci fib]
+15.3 +2.5 42 +16 +16 1019.0 988.3 +21.3
21 15.09 ЮЗ 2 10 км 3/0
[Ci fib]
+14.1 +4.4 52 +14 +14 1017.0 986.3
00 16.09 ЮЗ 1 10 км 3/0
[Ci fib]
+11.4 +3.9 60 +11 +11 1017.0 986.0
03 16.09 ЮЗ 2 10 км 3/0
[Ci fib]
+11.8 +4.5 61 +11 +11 1015.0 984.1
06 16.09 ЮЗ 2 4000 м 6/0
[Ci fib]
+15.1 +6.6 57 +15 +16 1014.0 983.5 +11.2
09 16.09 ЮЗ 4 4000 м 8/0
[Ac trans]
+22.4 +6.6 36 +23 +23 комфорт 1012.0 982.3
12 16.09 З 6 4000 м 9/0
[Ac trans]
+21.9 +6.5 37 +23 +23 комфорт 1011.0 981.3
15 16.09 З 6 4000 м 8/0
[Ac trans]
+20.5 +8.5 46 +22 +22 комфорт 1011.0 981.1
18 16.09 З 3 10 км 6/0
[Ac trans Ci fib]
+17.3 +6.5 49 +17 +17 1011.0 980.8 +23.4
21 16.09 З 2 10 км 10/0
[Ac und]
+15.9 +7.4 57 +16 +16 1011.0 980.7
00 17.09 З 2 10 км слаб. ливневой дождь 10/10 600 м
[Cb cap]
+13.5 +8.1 70 +13 +13 1011.0 980.4
03 17.09 З 2 10 км {ливн. осадки} 10/10 600 м
[Sc]
+12.0 +6.7 70 +11 +11 1011.0 980.2
06 17.09 З 2 4000 м {ливн. осадки} 8/0
[Ac trans Ci fib]
+11.8 +5.7 66 +11 +11 1012.0 981.2 +10.5 0.0
09 17.09 З 4 4000 м 8/8 600 м
[Cu hum]
+16.5 +2.9 40 +16 +16 1011.0 980.7
12 17.09 СЗ 4 4000 м 6/6 600 м
[Cu hum]
+18.9 +0.9 30 +19 +21 1009.0 979.0
15 17.09 З 3 4000 м 6/6 600 м
[Cu hum]
+17.9 +1.4 33 +18 +18 1008.0 977.9
18 17.09 З 2 10 км ясно +12.6 +3.3 53 +12 +12 1008.0 977.4 +19.6
21 17.09 З 2 10 км 9/0
[Ac trans]
+12.5 +3.7 55 +12 +12 1007.0 976.4
00 18.09 З 2 10 км 9/0
[Ac trans]
+11.4 +8.3 81 +10 +10 1006.0 975.3
03 18.09 СЗ 4 10 км в посл. час ливневой дождь 10/10 600 м
[Sc]
+9.0 +6.3 83 +6 +6 1006.0 975.1
06 18.09 З 5 4000 м {ливн. осадки} 8/0
[Ac trans]
+8.3 +3.7 73 +5 +5 1007.0 975.9 +8.2 0.5
09 18.09 З 6 4000 м {ливн. осадки} 9/9 600 м
[Sc]
+11.8 +1.7 50 +9 +9 1008.0 977.3
12 18.09 З 7 4000 м {ливн. осадки} 9/9 600 м
[Cb cap]
+10.3 +5.9 74 +7 +7 1010.0 979.1
15 18.09 СЗ 7 4000 м {ливн. осадки} 9/9 600 м
[Sc Ac trans]
+10.4 +4.5 67 +7 +7 1012.0 981.0
18 18.09 З 4 10 км {ливн. осадки} 8/0
[Ac trans]
+8.8 +5.9 82 +6 +6 1015.0 983.8 +12.4 0.7
21 18.09 З 4 10 км 9/9 600 м
[Sc Ac trans]
+8.6 +5.3 80 +6 +6 1017.0 985.7
00 19.09 З 3 10 км ясно +6.9 +4.4 84 +4 +4 1018.0 986.5
03 19.09 З 2 10 км ясно +5.0 +3.3 89 +2 +2 1018.0 986.2
06 19.09 З 2 4000 м ясно +7.3 +4.3 81 +5 +7 1019.0 987.5 +4.9
09 19.09 СЗ 3 4000 м 9/9 600 м
[Sc]
+11.9 +3.9 58 +11 +11 1019.0 988.0
12 19.09 СЗ 4 4000 м {ливн. осадки} 6/3 600 м
[Cu med, cong Ac trans]
+14.3 +0.5 39 +13 +15 1019.0 988.2
15 19.09 СЗ 2 4000 м 8/8 600 м
[Sc]
+12.4 +2.5 51 +12 +12 1019.0 988.0
18 19.09 СЗ 1 10 км 6/0
[Ac trans]
+8.7 +3.5 70 +8 +8 1021.0 989.6 +14.3 0.0
21 19.09 СЗ 1 10 км ясно +6.2 +3.5 83 +5 +5 1021.0 989.3
00 20.09 З 1 10 км ясно +4.4 +2.7 89 +3 +3 1021.0 989.1
03 20.09 З 1 10 км 8/0
[Ac trans]
+5.2 +3.5 89 +4 +4 1021.0 989.2
06 20.09 З 2 4000 м 10 баллов +6.8 +4.6 86 +5 +5 1021.0 989.3 +4.0
09 20.09 З 4 4000 м 9 баллов +10.0 +3.9 66 +8 +8 1021.8 990.7

 

Местоположение метеостанции Белополе (Винницкая область, Украина): широта 49.83 долгота 28.88 высота над уровнем моря 258 м.

В архиве по умолчанию представлена погода в Белополе за последнюю неделю. Архивные данные за месяц целиком и за предыдущие месяцы, начиная с января 2011 года, Вы можете получить, выбрав интересующий диапазон дат из раскрывающегося списка и нажав кнопку "Ввод!".


*Определитесь, кто Вы:
робот инопланетянин человек

Внимание! Время в таблицах - всемирное. Для получения местного времени необходимо прибавить поправку, которая равна 2 ч.

Смотрите также архив погоды в соседних городах и на ближайших метеорологических станциях:

Погода в Житомире (Житомирская область, Украина) (46 км)
Погода в Виннице (Винницкая область, Украина) (70 км)
Погода в Фастове (Киевская область, Украина) (79 км)
Погода в Белой Церкви (Киевская область, Украина) (89 км)
Погода в Жмеринке (Винницкая область, Украина) (103 км)
Погода в Тетереве (Киевская область, Украина) (109 км)
Погода в Жашкове (Черкасская область, Украина) (109 км)
Погода в Хмельнике (Винницкая область, Украина) (110 км)
Погода в Гайсине (Винницкая область, Украина) (121 км)
Погода в Новограде-Волынском (Житомирская область, Украина) (123 км)

Пояснения к столбцам:

Ветер - указаны скорость ветра в м/с - средняя за 10 мин, порывы в срок и между сроками (в фигурных скобках) и направление, откуда дует ветер: С - северный, СВ - северо-восточный, В - восточный, ЮВ - юго-восточный, Ю - южный, ЮЗ - юго-западный, З - западный, СЗ - северо-западный.
Видимость - горизонтальная дальность видимости в метрах или километрах. При видимости от 1 до 10 км при отсутствии осадков обычно наблюдается дымка, при ухудшении видимости до 1 км и менее - туман. В сухую погоду видимость может ухудшаться дымом, пылью или мглою.
Явления - указаны атмосферные явления, наблюдавшиеся в срок или в последний час перед сроком; фигурными скобками обозначены явления, наблюдавшиеся между сроками (за 1-3 часа до срока); квадратными скобками обозначены град или гололедные отложения с указанием их диаметра в мм.
Облачность - указаны через наклонную черту общая и нижняя облачность в баллах и высота нижней границы облаков в метрах; квадратными скобками обозначены формы облаков: Ci - перистые, Cs - перисто-слоистые, Cc - перисто-кучевые, Ac - высококучевые, As - высокослоистые, Sc - слоисто-кучевые, Ns - слоисто-дождевые, Cu - кучевые, Cb - кучево-дождевые. Подробнее классификацию облаков см. в Атласе облаков (PDF).
T - Температура воздуха - температура, измеренная на высоте 2 м над землей.
Td - Температура точки росы - температура, при понижении до которой содержащийся в воздухе водяной пар достигнет насыщения.
f - Относительная влажность воздуха - влажноcть воздуха, измеренная на высоте 2 м над землей.
Te - Эффективная температура - температура, которую ощущает одетый по сезону человек в тени. Характеристика душности погоды. При расчете учитывается влияние влажности воздуха и скорости ветра на теплоощущения человека.
Tes - Эффективная температура на солнце - температура, которую ощущает человек, с поправкой на солнечный нагрев. Характеристика знойности погоды. Зависит от высоты солнца над горизонтом, облачности и скорости ветра. Ночью, в пасмурную погоду, а также при ветре 12 м/с и более поправка равна нулю.
P - Атмосферное давление - приведенное к уровню моря атмосферное давление.
Po - Атмосферное давление - измеренное на уровне метеостанции атмосферное давление.
Tmin - Минимальная температура - минимум температуры воздуха на высоте 2 м над землей.
Tmax - Максимальная температура - максимум температуры воздуха на высоте 2 м над землей.
R - Количество осадков - Количество выпавших осадков за период времени, мм. При наведении курсора мыши на число - период времени, за который выпало указанное количество осадков.
R24 - Количество осадков - Количество выпавших осадков за 24 часа, мм.
S - Снежный покров - Высота снежного покрова, см. При наведении курсора мыши на число - состояние снежного покрова и степень покрытия местности в баллах.